Theta_e
319 322 326 323 324 321 321 315 312 312 313 306 307 306 303 299 305 316 308 309 315 319 328 330 332 333 334 331 330 330 325 314 314 312 312 314 318 321 329 332 332 332 332 332 330 326 324 324 325
323 326 327 323 324 326 315 308 308 307 307 308 306 302 300 298 296 300 307 309 315 320 325 329 328 332 333 330 330 330 320 324 323 318 312 310 311 315 322 329 331 332 331 331 328 322 317 318 324
326 329 327 320 316 317 312 301 300 302 303 307 302 298 296 294 295 297 302 308 314 318 322 329 327 327 331 329 328 325 320 319 324 325 318 319 316 314 312 315 316 317 317 315 313 313 315 322 324
327 327 317 317 311 299 297 298 297 300 301 301 300 296 294 293 294 295 303 307 314 317 320 329 329 327 328 328 327 325 321 319 316 315 314 313 312 312 311 311 313 320 314 311 312 313 314 318 319
324 321 319 312 303 298 295 295 296 296 297 297 301 296 293 292 294 297 303 307 312 315 318 321 328 329 328 328 327 325 322 322 320 319 318 317 315 315 316 317 317 318 318 316 316 315 314 314 313
321 319 320 316 303 298 297 294 295 294 294 295 297 293 291 291 293 294 300 305 306 310 314 319 322 330 329 328 327 326 325 325 324 324 324 323 322 318 317 317 318 318 318 317 317 317 317 316 316
316 315 313 308 304 301 296 295 293 294 293 293 294 293 291 295 293 293 297 301 302 307 312 321 322 323 330 328 328 327 328 328 328 328 327 327 326 326 325 323 323 320 319 318 317 318 319 319 319
313 312 309 306 306 298 296 294 293 293 293 292 293 293 293 292 293 294 294 294 299 304 309 315 320 321 322 327 329 329 329 328 328 327 327 327 327 327 326 326 325 326 324 324 324 323 322 322 322
307 308 304 304 303 296 295 294 292 292 293 293 293 292 291 291 294 294 295 293 294 299 298 307 310 317 321 323 326 328 328 328 327 326 328 325 327 326 326 326 325 325 324 323 323 323 322 324 324
301 301 299 298 297 297 295 294 293 293 293 292 292 290 290 293 295 296 295 294 294 294 294 296 299 300 306 308 315 322 324 324 323 323 323 324 323 322 323 323 323 321 320 322 321 321 322 322 321
299 299 297 296 295 294 293 292 294 294 294 293 293 293 290 292 294 294 294 295 293 293 295 294 294 299 301 301 301 302 305 306 306 306 307 306 306 306 307 306 306 305 304 306 307 310 314 318 319
299 297 297 297 296 295 293 292 292 292 291 293 295 296 295 293 291 294 293 292 295 296 295 297 299 298 295 295 298 300 304 304 304 300 300 300 300 299 298 298 297 298 298 298 299 298 298 298 298
298 296 295 294 294 294 293 293 293 292 292 293 294 295 296 295 293 290 291 293 291 291 291 292 294 297 298 300 296 295 295 295 295 294 295 295 295 295 295 295 295 294 295 295 295 296 296 296 296
296 297 297 296 295 296 295 294 294 293 293 292 292 291 292 293 294 295 291 290 292 291 290 290 290 291 291 292 292 292 292 293 293 293 293 293 293 293 293 293 293 293 293 293 294 294 294 295 295
298 300 299 299 298 297 299 296 295 294 294 293 291 291 290 290 290 289 291 299 292 291 291 291 290 290 291 291 291 291 291 291 292 292 292 291 292 292 292 292 292 292 292 292 293 293 294 294 294
304 302 302 299 302 302 300 295 296 294 295 294 293 291 290 290 289 290 290 290 291 297 295 292 291 290 290 290 290 291 291 291 291 291 291 291 291 291 291 291 291 291 291 291 292 293 293 293 293
298 302 301 299 298 299 298 294 296 295 294 293 293 291 291 291 290 289 289 289 289 290 290 290 290 290 290 290 290 291 290 290 290 290 290 290 290 290 290 290 290 290 290 290 290 291 291 292 292
302 298 298 297 295 294 294 295 296 295 294 293 292 291 291 290 290 290 290 289 289 289 290 290 290 290 290 290 290 290 290 290 289 290 289 289 289 289 289 289 289 289 289 289 289 289 289 290 290
296 297 297 296 296 295 293 293 292 293 294 293 292 291 291 290 290 290 290 289 289 289 289 290 290 290 290 290 290 290 290 289 289 289 289 289 289 289 289 289 289 288 288 288 288 288 288 289 289
296 296 297 296 294 294 293 293 291 292 291 292 292 292 291 291 290 290 290 290 289 289 289 289 290 290 290 290 290 290 289 289 289 289 289 289 289 289 289 289 288 288 288 287 287 287 287 286 286
297 297 298 297 296 292 293 296 291 291 292 292 292 292 292 292 291 290 290 290 290 290 289 289 290 290 290 290 290 289 289 289 289 289 289 289 289 289 289 288 288 287 287 287 286 286 286 285 285
298 297 297 298 298 295 296 294 296 290 289 290 292 292 292 293 292 291 290 290 290 290 290 290 290 289 289 289 289 289 289 289 289 289 289 289 289 289 289 288 288 288 287 287 286 286 285 286 285
299 298 299 300 297 294 295 290 294 292 291 291 291 293 293 294 293 292 291 291 291 290 290 290 290 290 289 290 289 289 289 289 289 289 289 289 289 289 289 289 288 288 288 287 286 286 286 285 285
297 298 297 296 296 291 291 291 293 295 295 293 293 293 294 294 294 294 292 291 290 290 290 290 290 290 290 289 289 289 289 289 289 289 289 289 289 288 288 288 288 288 288 288 287 286 285 285 285
296 298 291 292 292 294 293 290 295 294 293 294 295 296 296 295 294 295 294 291 291 291 291 290 290 290 290 290 290 290 289 289 289 289 289 289 288 288 288 288 289 288 288 288 288 287 285 285 285
295 295 292 288 293 293 290 292 296 292 294 298 297 298 298 297 296 295 296 294 292 291 291 291 291 291 290 290 290 289 289 289 289 289 288 289 288 288 288 288 288 288 288 288 287 287 286 285 285
292 294 291 282 273 286 292 292 294 291 295 296 298 298 298 299 298 297 297 296 295 292 291 291 291 290 290 290 290 289 289 289 289 289 288 289 289 289 288 288 288 288 288 288 288 287 287 285 285
291 291 291 285 290 289 293 293 297 295 294 294 295 298 299 299 298 298 297 297 297 295 293 291 291 290 290 290 290 290 290 289 289 289 289 289 289 289 289 289 288 288 288 288 288 287 287 285 284
289 290 289 288 289 290 290 295 293 296 293 294 296 300 300 299 299 299 299 298 297 296 294 293 291 291 290 290 290 290 290 290 290 290 289 289 289 289 289 289 289 288 288 288 288 287 287 286 284
289 290 291 291 290 287 289 292 294 294 294 295 297 300 300 300 300 299 299 298 297 296 295 294 293 292 291 291 290 290 290 290 290 290 290 289 289 289 289 289 289 288 288 288 287 287 287 286 284
Wind_Speed
6 7 8 3 3 5 3 4 2 9 3 4 10 6 10 11 5 2 5 3 3 9 21 21 23 10 11 14 13 11 8 9 12 11 11 10 12 12 15 14 13 12 12 11 11 10 8 5 5
4 3 5 3 4 4 2 2 5 7 9 6 5 4 11 6 8 7 2 6 3 9 17 23 27 22 15 14 13 11 10 15 15 14 12 11 10 11 10 10 9 9 9 7 7 8 8 6 3
3 3 4 2 3 4 4 2 4 6 11 3 5 10 6 7 10 8 11 6 3 7 14 22 23 23 14 12 11 8 8 11 14 15 13 14 13 12 9 7 5 2 2 3 5 7 8 6 3
2 2 7 3 6 4 3 6 9 4 3 11 9 10 8 14 9 13 10 2 4 6 10 17 19 18 14 11 11 8 7 8 8 9 9 8 8 9 8 8 7 8 6 5 6 7 8 7 4
2 5 4 5 4 4 7 9 14 10 4 14 2 5 6 12 10 12 7 2 5 6 8 11 22 18 17 13 12 10 7 7 7 7 7 7 6 7 8 6 5 6 7 6 6 6 6 5 4
4 4 3 2 5 3 5 16 5 11 11 7 8 5 6 5 10 14 9 8 9 8 5 7 13 20 19 18 16 12 9 7 6 6 6 5 4 4 5 4 4 4 4 5 5 5 5 6 5
5 3 4 6 7 2 4 3 14 8 11 9 6 4 5 7 11 11 12 13 14 12 10 11 9 10 23 22 17 15 11 8 5 3 4 5 6 7 6 2 5 4 3 4 4 4 4 5 5
6 4 4 5 4 3 2 3 3 14 7 1 6 5 4 8 9 13 16 17 18 16 16 17 15 14 10 16 16 15 11 8 6 3 1 0 1 2 3 5 8 9 6 5 4 5 5 5 5
5 4 5 4 3 5 9 4 11 12 17 19 9 10 7 5 7 12 18 17 20 20 20 18 20 18 18 16 14 13 12 9 7 4 1 0 1 1 3 5 6 7 9 7 7 8 8 7 7
10 5 5 4 3 5 10 7 5 6 13 15 11 13 10 7 9 12 15 19 22 21 21 21 19 18 19 20 18 14 11 11 10 8 6 4 2 2 2 3 4 3 4 4 5 8 10 11 10
9 5 5 12 16 15 9 9 5 9 9 10 10 12 14 15 14 15 15 15 19 18 18 20 21 18 16 18 18 18 16 16 15 13 11 10 9 9 7 6 5 5 5 6 5 5 7 8 10
9 20 12 5 8 7 5 7 10 16 7 9 11 10 9 13 17 17 16 18 16 18 16 15 15 17 18 16 16 16 13 13 12 13 11 10 9 10 10 10 11 10 11 10 10 10 10 9 10
13 13 20 24 26 23 20 18 10 14 12 13 13 15 15 12 16 17 18 15 17 18 19 17 15 14 14 12 14 16 15 15 16 16 14 13 13 14 13 14 14 14 14 14 14 13 12 11 11
16 20 12 12 14 12 9 10 3 7 13 11 11 12 14 15 15 14 17 13 14 15 15 16 15 17 17 18 16 19 19 18 16 17 18 17 17 17 17 17 18 18 19 18 18 18 17 17 16
17 8 8 3 2 4 3 7 5 5 3 8 6 6 8 12 10 11 11 13 11 12 13 12 15 14 16 17 18 18 19 18 19 19 19 19 18 18 19 19 20 21 22 20 19 19 19 18 19
1 1 3 4 1 2 1 2 3 3 2 4 5 4 7 8 10 11 10 10 10 10 11 11 12 14 16 17 17 18 17 17 18 19 19 19 19 20 19 21 22 22 22 23 23 23 23 23 23
8 3 5 3 7 1 3 3 8 7 4 6 4 2 3 3 7 8 8 9 10 10 10 11 12 12 12 13 14 15 16 16 17 17 17 18 18 19 20 21 22 23 24 25 27 28 28 27 27
3 4 4 4 6 7 4 2 8 10 9 9 5 2 1 0 3 6 7 7 8 10 10 10 10 11 11 11 12 12 12 14 14 15 16 16 18 18 19 21 22 24 25 27 28 29 30 32 32
8 6 5 2 3 4 4 1 7 10 12 13 10 8 6 4 4 6 7 7 7 8 8 8 9 9 9 9 9 9 10 12 12 13 14 15 16 17 19 20 22 24 26 28 29 30 33 35 37
7 7 3 1 3 3 3 6 8 12 11 17 14 13 12 10 9 9 9 9 9 8 8 8 8 8 7 7 7 8 8 9 10 11 11 13 15 17 18 20 21 21 22 24 28 31 32 33 36
5 5 2 2 2 3 2 6 6 8 18 18 20 19 17 15 13 12 13 13 12 11 10 9 8 7 6 6 6 5 6 6 7 8 9 12 14 15 17 18 20 21 22 24 26 28 30 31 31
3 3 3 4 3 1 4 4 5 6 9 17 27 26 25 21 18 15 15 16 15 13 12 11 9 9 7 5 4 3 3 3 3 5 8 10 12 14 16 18 20 22 22 23 25 26 27 29 31
3 2 3 2 3 4 1 3 6 3 8 14 27 33 31 27 23 20 18 16 15 16 15 14 13 10 8 6 4 3 2 1 2 5 7 8 10 13 15 17 20 21 22 23 24 24 25 26 27
2 3 4 3 3 3 4 4 5 6 9 5 25 37 36 33 30 26 20 18 19 18 18 16 14 12 10 9 7 6 5 4 4 6 7 8 10 13 15 17 19 21 22 23 23 24 25 25 25
3 3 3 5 4 4 2 2 11 7 8 12 22 38 39 37 35 32 28 25 22 21 19 17 16 14 12 12 10 9 8 7 8 8 9 10 12 13 15 17 19 20 22 23 24 25 25 26 26
2 4 4 5 2 4 4 6 6 6 12 17 15 26 35 38 38 36 33 30 24 21 20 20 19 16 16 14 12 12 11 11 12 12 12 12 14 15 17 18 19 21 23 24 25 27 27 27 27
3 3 3 7 1 3 3 7 10 6 7 13 21 20 30 38 40 40 36 34 30 26 22 21 20 18 19 17 16 15 14 15 14 14 15 15 16 18 19 20 21 22 24 25 27 28 29 29 29
1 5 3 3 1 5 5 6 7 5 10 9 16 28 30 33 38 41 40 38 34 30 25 22 22 21 19 19 19 17 16 16 16 17 17 17 18 19 21 22 23 24 25 26 28 29 31 32 31
3 3 2 3 4 5 2 6 8 10 11 15 26 35 33 35 35 40 41 39 36 32 30 27 25 25 23 22 20 19 18 17 18 19 19 20 21 22 23 24 25 26 27 28 30 31 32 34 33
2 5 6 4 6 4 2 9 5 9 10 21 30 36 35 34 37 35 37 37 37 35 33 31 29 26 25 23 22 22 21 20 21 21 21 22 24 24 25 26 27 28 29 30 31 33 34 36 35
Wind_Direction
311 256 207 226 99 69 115 94 63 2 51 84 65 39 94 56 27 109 331 354 49 68 74 85 74 72 109 113 109 101 99 94 84 86 91 93 90 98 95 92 87 83 78 72 68 57 48 49 60
334 197 194 130 119 143 203 355 84 357 315 150 63 7 46 65 25 331 345 336 94 88 86 92 69 67 118 121 122 118 111 89 84 82 86 88 95 106 121 111 102 98 89 67 37 5 9 16 28
334 145 133 86 84 115 145 22 355 301 33 22 100 58 63 2 339 344 330 339 118 117 98 114 88 76 123 122 118 133 109 103 97 97 93 91 92 97 111 116 116 98 341 338 356 2 14 53 47
239 110 65 53 87 48 49 15 337 334 357 32 104 68 80 11 359 344 332 346 152 150 126 133 129 113 120 126 122 120 115 106 95 82 88 87 86 82 83 93 92 79 79 70 52 49 51 59 50
86 78 88 84 69 106 57 24 44 58 55 31 332 112 79 13 7 8 2 43 128 144 164 150 153 153 149 153 141 133 125 111 100 89 79 71 71 75 77 78 69 52 48 43 32 29 37 49 40
71 82 87 100 93 122 70 26 24 38 32 357 71 84 78 14 40 33 34 76 79 99 130 161 154 167 168 162 155 145 136 122 103 85 66 55 48 50 65 61 50 40 26 20 15 12 9 359 358
79 54 73 89 114 122 50 39 36 35 32 18 17 69 90 71 43 52 63 78 82 89 109 139 126 171 180 169 161 152 143 133 107 74 15 24 21 15 1 355 3 339 6 7 355 345 345 342 331
70 79 88 39 159 61 85 80 44 34 24 346 32 48 44 38 53 80 75 71 81 87 94 100 114 112 130 153 169 152 151 153 156 161 256 264 266 299 288 301 316 308 304 306 305 306 307 303 302
60 65 59 46 95 147 154 102 68 71 66 63 62 68 57 48 102 100 97 82 79 87 81 89 98 102 109 114 126 156 145 139 140 121 152 295 236 241 292 292 294 299 304 299 298 308 310 298 290
49 63 41 6 51 101 96 97 102 85 67 56 50 79 87 105 105 98 89 82 75 77 79 84 84 89 95 93 101 109 128 139 125 119 128 133 120 98 43 345 319 309 340 317 298 298 296 296 303
35 82 105 69 87 95 91 74 80 104 62 78 56 65 84 91 94 89 79 74 77 71 78 81 87 88 92 101 104 109 113 112 105 100 100 92 88 85 78 68 57 43 40 32 18 356 329 312 310
97 56 67 64 50 80 58 82 70 65 92 110 107 91 102 102 89 86 79 78 75 81 73 76 81 89 87 86 90 91 95 97 98 88 84 79 70 61 56 49 42 32 28 25 20 16 14 3 353
61 76 76 90 83 78 92 75 77 72 104 96 95 97 92 95 97 91 84 77 79 73 75 71 76 82 87 90 84 86 83 81 80 81 75 65 61 57 49 44 38 34 32 25 23 18 15 12 2
113 100 98 82 85 92 74 44 53 97 104 72 65 70 72 71 75 94 94 92 89 88 82 83 80 83 86 86 82 85 82 77 75 71 67 62 59 56 52 50 44 37 33 29 25 21 19 16 13
119 96 112 71 97 156 1 33 19 153 37 70 53 66 86 98 93 93 85 88 87 100 96 90 92 87 88 87 87 83 78 78 76 73 70 64 58 53 47 44 40 36 30 25 24 22 18 17 20
61 218 51 6 266 67 260 282 282 211 33 10 3 44 80 99 111 109 102 99 108 105 111 109 93 91 89 87 85 82 79 75 72 69 65 58 54 49 43 41 38 33 28 24 19 16 15 15 15
28 51 19 338 17 3 16 205 215 202 252 304 338 26 65 103 110 107 107 102 103 106 111 112 111 102 93 88 84 80 78 77 73 69 62 56 50 45 38 36 32 27 24 23 21 15 11 9 10
122 96 37 21 343 30 48 101 184 220 255 265 272 248 150 198 138 133 128 116 112 112 116 114 113 105 99 94 88 87 84 78 73 65 58 50 44 40 36 32 28 24 20 19 19 17 11 9 6
109 96 103 319 309 44 15 321 241 242 245 254 247 236 228 224 188 166 157 154 143 135 127 127 121 113 108 98 94 91 79 75 69 60 53 46 40 35 31 28 25 22 18 16 14 15 13 7 4
76 99 65 48 28 65 321 277 250 242 248 242 238 232 223 215 211 192 186 187 178 167 158 147 137 133 128 119 108 95 90 82 71 62 52 45 38 31 26 24 22 19 16 14 13 13 15 14 10
31 95 149 135 47 80 15 284 238 239 233 235 235 238 235 226 220 210 205 201 197 190 184 177 165 157 151 141 123 108 92 79 71 58 46 39 32 26 22 19 16 14 11 12 11 10 9 10 11
66 10 74 104 54 193 75 276 263 226 245 234 236 232 231 226 222 218 215 209 207 200 199 198 193 189 186 177 154 126 105 83 58 38 32 25 20 17 15 11 11 9 7 6 6 5 3 2 2
140 85 52 73 87 67 3 71 266 95 252 239 235 232 231 225 223 220 215 211 207 206 207 207 208 206 208 205 203 209 232 256 350 3 4 2 1 2 2 1 1 360 359 358 356 354 353 353 352
135 87 55 54 63 21 228 133 267 194 215 229 226 230 228 225 223 223 220 217 215 213 213 215 218 217 221 223 230 238 252 281 312 318 321 331 343 350 349 350 349 349 348 349 348 346 344 343 343
65 56 350 356 7 222 164 55 248 241 227 218 214 224 225 224 223 222 220 220 218 217 217 219 223 224 229 234 238 248 257 270 281 285 298 314 328 334 334 335 336 336 337 338 339 337 336 335 334
157 145 157 216 235 266 352 237 249 219 234 231 230 232 227 225 225 225 224 224 223 223 221 222 225 225 232 236 240 246 254 263 271 281 291 305 311 316 320 324 325 327 327 328 328 331 330 328 328
196 183 138 100 71 36 229 279 290 230 256 223 224 229 227 226 225 225 225 226 226 226 227 229 231 232 234 240 241 245 253 260 269 277 286 300 305 309 310 312 314 315 317 318 320 323 324 321 321
186 152 74 1 266 287 280 283 242 250 229 221 222 223 224 224 227 226 226 225 226 228 231 233 235 238 239 242 245 247 256 263 271 276 284 291 297 298 301 303 304 306 307 309 312 314 317 317 316
153 207 67 127 149 193 257 255 217 223 204 208 221 223 223 221 223 224 226 225 226 227 229 232 237 240 239 243 248 251 257 264 269 274 281 287 290 295 297 299 300 300 301 304 305 308 312 312 311
244 218 166 140 230 228 179 263 252 230 226 218 226 228 228 227 228 228 227 226 225 225 227 230 235 241 243 244 246 250 255 260 267 275 283 284 285 287 291 294 297 297 298 300 303 305 306 309 309